This demonstration page uses our WeatherBlox Daily Observations layout. Learn more.

41.55636, -103.73856

Hourly Observations for July 21, 2016

Temp ( °F °C ) Dew Point ( °F °C ) Humidity (%) Winds ( mph kmh ) Pressure ( in mb ) Visibility ( mi km ) Precip ( " mm )
12:53 am 00:53 Clear 70 21.1 58 14.4 66 66 NNE 5 7 29.88 1012 10 16.0934 0 0
1:53 am 01:53 Clear 70 21.1 54 12.2 57 57 NNW 7 11 29.87 1012 10 16.0934 0 0
2:53 am 02:53 Clear 69 20.6 55 12.8 61 61 WNW 6 9 29.88 1012 10 16.0934 0 0
3:53 am 03:53 Clear 67 19.4 56 13.3 68 68 Calm 29.9 1013 10 16.0934 0 0
4:53 am 04:53 Clear 66 18.9 58 14.4 75 75 undefined N/A 29.91 1013 10 16.0934 0 0
5:53 am 05:53 Sunny 64 17.8 55 12.8 73 73 NW 8 13 29.91 1013 10 16.0934 0 0
6:53 am 06:53 Sunny 68 20 55 12.8 63 63 undefined N/A 29.92 1013 10 16.0934 0 0
7:53 am 07:53 Sunny 74 23.3 56 13.3 54 54 WNW 5 7 29.95 1014 10 16.0934 0 0
8:53 am 08:53 Sunny 79 26.1 54 12.2 42 42 W 9 15 29.96 1015 10 16.0934 0 0
9:53 am 09:53 Sunny 85 29.4 51 10.6 31 31 WNW 9 15 29.96 1015 10 16.0934 0 0
10:53 am 10:53 Sunny 89 31.7 52 11.1 28 28 undefined N/A 29.96 1014 10 16.0934 0 0
11:53 am 11:53 Sunny 92 33.3 53 11.7 27 27 undefined N/A 29.96 1014 10 16.0934 0 0
12:53 pm 12:53 Sunny 94 34.4 52 11.1 24 24 VRB 5 7 29.95 1014 10 16.0934 0 0
1:53 pm 13:53 Sunny 98 36.7 55 12.8 24 24 NE 3 6 29.93 1014 10 16.0934 0 0
2:53 pm 14:53 Sunny 97 36.1 53 11.7 23 23 E 6 9 29.92 1013 10 16.0934 0 0
3:53 pm 15:53 Sunny 99 37.2 49 9.4 18 18 NNE 6 9 29.91 1013 10 16.0934 0 0
4:53 pm 16:53 Sunny 98 36.7 52 11.1 21 21 E 7 11 29.91 1013 10 16.0934 0 0
5:53 pm 17:53 Sunny 97 36.1 58 14.4 27 27 ENE 8 13 29.91 1013 10 16.0934 0 0
6:53 pm 18:53 Sunny 91 32.8 63 17.2 39 39 ENE 6 9 29.92 1013 10 16.0934 0 0
7:53 pm 19:53 Sunny 83 28.3 63 17.2 51 51 NE 7 11 29.94 1014 8 12.87472 0 0
8:53 pm 20:53 Clear 78 25.6 59 15 52 52 NNE 9 15 29.95 1014 10 16.0934 0 0
9:53 pm 21:53 Clear 73 23 57 14 57 57 NE 6 9 29.91 1013 10 16.0934 0 0
10:53 pm 22:53 Clear 75 23.9 58 14.4 55 55 SE 6 9 29.95 1014 10 16.0934 0 0
11:53 pm 23:53 Clear 71 21.7 61 16.1 71 71 E 9 15 29.96 1015 10 16.0934 0 0

Powered by AerisWeather